Regional Weather Roundup
Issued by NWS Grand Forks, ND

Home | Current Version | Previous Version | Graphics & Text | Print | Product List | Glossary On
Versions: 1 2 3 4 5 6 7 8 9 10 11 12 13 14 15 16 17 18 19 20 21 22 23 24 25 26 27 28 29 30 31 32 33 34 35 36 37 38 39 40 41 42 43 44 45 46 47 48 49 50
000
ASUS43 KFGF 292131
RWRFGF
PRAIRIE TO PINES  WEATHER ROUNDUP
NATIONAL WEATHER SERVICE EASTERN NORTH DAKOTA/GRAND FORKS ND
400 PM CDT SAT AUG 29 2015

 **SATELLITE DATA USED TO AUGMENT SKY COVER AT AUTOMATED STATIONS**
 *****  WEATHER ACROSS EASTERN NORTH DAKOTA  *****

CITY           SKY/WX    TMP DP  RH WIND       PRES   REMARKS
GRAND FORKS    FAIR      80  68  66 S9G18     29.86F
GRAND FRKS AFB FAIR      81  69  67 S13       29.86F
GRAND FRKS NWS   N/A     79 N/A N/A S13         N/A
DEVILS LAKE    FAIR      82  64  54 S10       29.85S
FARGO          FAIR      84  68  58 S14       29.89F
WAHPETON ARPT  FAIR      79  63  57 S13       29.93F
$$

 ***** WEATHER ACROSS CENTRAL AND WESTERN NORTH DAKOTA  *****

CITY           SKY/WX    TMP DP  RH WIND       PRES   REMARKS
BISMARCK       PTSUNNY   92  59  33 SE13      29.87F HAZE    HX  91
MINOT          CLOUDY    92  47  21 S13       29.82F HAZE
JAMESTOWN      FAIR      84  70  62 VRB7      29.89F
MINOT AFB      FAIR      92  51  24 SW9       29.80F
GARRISON         N/A     93  55  27 S14       29.85F HX  91
WILLISTON      FAIR      89  50  26 S3        29.83F HAZE
DICKINSON      FAIR      99  41  13 SW13G24   29.86F HX  94
HETTINGER      FAIR      96  44  16 S10G20    29.92F HX  92
$$

 *****  OTHER AIRPORT OBSERVATIONS IN OUR AREA  *****

CITY           SKY/WX    TMP DP  RH WIND       PRES   REMARKS
WALHALLA       FAIR      79  77  94 MISG      29.82F
GRAFTON AIRPOR FAIR      79  72  78 S12       29.85S
VALLEY CITY AR FAIR      81  73  78 S9        29.90F
CANDO          FAIR      82  64  54 S8        29.85F
CAVALIER APRT  FAIR      77  70  78 S9G16     29.83F
GWINNER        FAIR      81  70  69 SW9       29.92S
SHEYENNE NWR     N/A     82  67  60 SW9       29.95S
ROLLA            N/A     86  55  35 SW17      29.84F
 ***** THE ABOVE OBSERVATIONS ARE NON NWS ARE NOT QUALITY
       CONTROLLED AND MAY MIS-REPORT RAIN FOR SNOW...
$$

  *****  WEATHER ACROSS NORTHERN MINNESOTA  *****

CITY           SKY/WX    TMP DP  RH WIND       PRES   REMARKS
FLAG ISLAND    CLOUDY    70  66  88 S13       29.89F
WARROAD        FAIR      72  66  83 SE8       29.90F
ROSEAU         FAIR      75  68  78 SE7       29.89F
HALLOCK        FAIR      75  70  83 S10       29.85R
THF RVR FALLS  FAIR     N/A N/A N/A SW14      29.90F
BAUDETTE       FAIR      73  66  78 S8        29.92F
WASKISH        FAIR      75  68  78 S5        29.94S
CROOKSTON      FAIR      81  68  65 S12G18    29.89F
STEPHEN NDAWN    N/A     75  70  83 S13         N/A
GREENBUSH NDAW   N/A     77  68  73 S8          N/A
$$
  *****  WEATHER ACROSS CENTRAL AND WEST MINNESOTA  *****

CITY           SKY/WX    TMP DP  RH WIND       PRES   REMARKS
FOSSTON        FAIR      77  64  65 S13       29.93F
BEMIDJI        FAIR      75  66  72 S8        29.95F
PARK RAPIDS    FAIR      76  64  66 S9        29.98S
ELBOW LAKE     FAIR      74  64  70 S12       29.97S
WADENA         FAIR      73  63  68 S7        29.98F
DETROIT LAKES  FAIR      77  64  65 S12       29.96F
MOORHEAD       FAIR      81  66  61 S15       29.91F
FERGUS FALLS   FAIR      75  64  69 S14       29.94F
MORRIS MN      FAIR      75  64  69 SE13      29.97F
STAPLES        FAIR      73  61  64 S8        29.99S
$$
  *****  WEATHER ELSEWHERE ACROSS MINNESOTA  *****

CITY           SKY/WX    TMP DP  RH WIND       PRES   REMARKS
DULUTH         CLOUDY    73  60  63 SW10      30.01F
INTRNTL FALLS  CLOUDY    71  65  81 VRB6      29.95F
ELY            CLOUDY    72  64  78 CALM      29.99S
CLOQUET        CLOUDY    72  59  64 S5        30.01F
WHEATON        FAIR      77  66  69 SE13      29.95F
BRAINERD       FAIR      74  62  66 S9        30.00F
HIBBING        FAIR      73  63  70 S6        29.99S
ALEXANDRIA     FAIR      73  61  65 S13       30.01F
SAINT CLOUD    FAIR      73  62  68 S9        30.02F
MINNEAPOLIS    PTSUNNY   73  61  65 SE3       30.03F
$$

  *****  WEATHER ACROSS SOUTH DAKOTA  *****

CITY           SKY/WX    TMP DP  RH WIND       PRES   REMARKS
SIOUX FALLS    CLOUDY    74  64  71 S10       30.02F
BROOKINGS      FAIR      75  64  69 S13       30.02F
WATERTOWN      FAIR      79  66  64 S12       29.98F
HURON          FAIR      83  69  62 S13       29.95S
SISSETON         N/A     83  66  56 SW9       29.92F
ABERDEEN       FAIR      84  71  65 S8        29.92F
MITCHELL       FAIR      81  69  67 S13       29.98F
PIERRE         FAIR      93  60  33 S13       29.90F HX  93
MOBRIDGE       FAIR      90  67  46 S10       29.89F HX  93
RAPID CITY     FAIR      93  49  22 S17       29.97F HX  90
$$

  *****  SOME WEATHER IN NEARBY STATES *****

CITY           SKY/WX    TMP DP  RH WIND       PRES   REMARKS
GLASGOW MT     HAZE      90  42  18 SE9       29.81F VSB 3/4
GREAT FALLS MT FAIR      89  40  17 SE3       29.79F HAZE
CHEYENNE WY    FAIR      84  35  17 VRB7      30.23F
SCOTTSBLUFF NE FAIR      93  40  15 S9        30.07F
OMAHA NE       CLOUDY    71  62  73 W5        30.05F
DES MOINES IA  CLOUDY    72  63  73 N7        30.03S
DAVENPORT IA   CLOUDY    73  67  81 NE6       30.01R
CHICAGO IL     CLOUDY    70  66  87 NW6       30.01R
EAU CLAIRE WI  FAIR      70  60  70 S6        30.05S
LA CROSSE WI   CLOUDY    74  62  66 N6        30.04S
$$

  *****  SOME NATIONAL WEATHER *****

CITY           SKY/WX    TMP DP  RH WIND       PRES   REMARKS
LA GUARDIA NY  FAIR      82  58  43 S15       30.10F
RALEIGH NC     PTSUNNY   85  58  39 CALM      30.15F
ATLANTA GA     PTSUNNY   79  67  66 SE7       30.13F
NEW ORLEANS LA FAIR      90  66  45 N3        30.00F HX  92
OKLAHOMA CITY  FAIR      91  65  41 N7        29.98F HX  93
ALBUQUERQUE NM PTSUNNY   87  45  23 E17       30.20F
SALT LAKE CITY PTSUNNY   95  40  14 SE18G26   29.99F HX  91
LOS ANGELES CA FAIR      82  65  56 W13       29.88F
BOISE ID       FAIR      92  38  15 VRB6      29.83F
SEATTLE WA     PTSUNNY   70  56  61 S24G36    29.73R
$$

*** WEATHER ACROSS MANITOBA...SASKATCHEWAN AND ONTARIO ***
                ***ONTARIO***

CITY           SKY/WX    TMP DP  RH WIND       PRES   REMARKS
GERALDTON      PTSUNNY   72  64  78 SW6       29.95F FOG
THUNDER BAY    CLOUDY    75  64  69 W5        29.96S
SIOUX LOOKOUT  MOSUNNY   79  54  41 SW7       29.92F
TORONTO        CLOUDY    73  61  64 SE7       30.09S
BIG TROUT LK   SUNNY     81  59  47 W8        29.74S
PICKLE LAKE    MOSUNNY   81  59  47 SW9       29.88F
DRYDEN         SUNNY     79  59  50 S8        29.92F
KENORA         CLOUDY    72  66  83 S8        29.91F
$$
                *** MANITOBA***

CITY           SKY/WX    TMP DP  RH WIND       PRES   REMARKS
BRANDON        MOSUNNY   86  57  37 S10       29.77F HAZE
DAUPHIN        SUNNY     84  63  48 SW8       29.69F HAZE
ISLAND LAKE    CLOUDY    75  59  57 S8        29.72F
PILOT MOUND      N/A     82  57  42 S13         N/A
THE PAS        CLOUDY    81  59  47 SW14G24   29.55F
THOMPSON       CLOUDY    70  61  73 NE7       29.61F
WINNIPEG       CLOUDY    73  68  83 S16       29.81F
LYNN LAKE      CLOUDY    70  50  49 MISG      29.65R
CHURCHILL      CLOUDY    50  48  93 NE17      29.73S FOG
GILLAM         LGT RAIN  68  59  73 SE3       29.68F
$$
                ***SASKATCHEWAN***

CITY           SKY/WX    TMP DP  RH WIND       PRES   REMARKS
ESTEVAN        CLOUDY    86  50  28 SW7       29.81  SMOKE
KINDERSLEY     PTSUNNY   82  43  24 S9        29.74F
LLOYDMINSTER   PTSUNNY   79  45  29 VRB2      29.71F
PRINCE ALBERT  PTSUNNY   81  59  47 W13       29.66R SMOKE
REGINA         PTSUNNY   86  48  26 W15       29.79S SMOKE
YORKTON        SUNNY     84  54  34 W16G23    29.73S
N. BATTLEFORD  SUNNY     81  45  28 VRB2      29.73F HAZE
LA RONGE       PTSUNNY   77  61  57 NW8       29.63R
SASKATOON      PTSUNNY   84  52  32 W10       29.73S
SWIFT CURRENT  SUNNY     86  39  19 SW9       29.79F HAZE
$$
NOTE: THESE ARE AUTOMATED STATIONS WITH LIMITED QUALITY CONTROL
      "FAIR" INDICATES FEW OR NO CLOUDS BELOW 12,000 FEET WITH NO
      SIGNIFICANT WEATHER AND/OR OBSTRUCTIONS TO VISIBILITY.
      SKY/WX - SKY CONDITION AND SIGNIFICANT WEATHER.
      TMP - AIR TEMPERATURE.    DP   - DEWPOINT TEMPERATURE.
      RH  - RELATIVE HUMIDITY.  PRES - PRESSURE.
      HX  - HEAT INDEX.         WCI  - WIND CHILL INDEX.
$



USA.gov is the U.S. government's official web portal to all federal, state and local government web resources and services.